Location: Alston School (historical)
(35.5076°N, 89.8251°W)
Time: 19:23:14
(UTC+00:00)

Cosmos 2058 Rocket - Pass Details

Date: 18 March 2026
Orbit: 604 x 632 km, 82.5° (Epoch: 21 April)

Event Time Altitude Azimuth Distance (km) Brightness Sun altitude
Rises 10:58:40 0° 156° (SSE) 2,885 6.7 -14.4°
Reaches altitude 10° 11:01:12 10° 142° (SE) 1,989 6.0 -13.9°
Maximum altitude 11:04:43 24° 89° (E) 1,308 5.7 -13.2°
Drops below altitude 10° 11:08:17 10° 36° (NE) 2,012 6.3 -12.5°
Sets 11:10:52 0° 22° (NNE) 2,927 7.0 -12.0°
